Weather Roundup
Issued by NWS Springfield, MO

Home | Current Version | Previous Version | Text Only | Print | Product List | Glossary On
Versions: 1 2 3 4 5 6 7 8 9 10 11 12 13 14 15 16 17 18 19 20 21 22 23 24 25 26 27 28 29 30 31 32 33 34 35 36 37 38 39 40 41 42 43 44 45 46 47 48 49 50
000
NZUS99 KSGF 061407
HRRSGF

HOURLY WEATHER
NATIONAL WEATHER SERVICE SPRINGFIELD MO
900 AM CDT WED MAY 06 2015

......SGF CWA......

CITY           SKY/WX    TMP DP  RH WIND       PRES   REMARKS
SPRINGFIELD    LGT RAIN  61  57  87 SW12      30.10R
JOPLIN         LGT RAIN  62  58  86 S18G28    30.03R
WEST PLAINS    SUNNY     68  55  63 S8        30.14R
ROLLA          SUNNY     71  56  58 S12       30.10R
OSAGE BEACH    MOSUNNY   72  55  56 S10       30.07S
BRANSON        CLOUDY    64  57  77 CALM      30.12

......SURROUNDING SGF CWA......

CITY           SKY/WX    TMP DP  RH WIND       PRES   REMARKS
CHANUTE        LGT RAIN  61  59  93 S15       29.95R
PARSONS        CLOUDY    63  60  90 S8        29.99R
COFFEYVILLE    CLOUDY    62  59  90 S14G23    29.99R
EMPORIA        LGT RAIN  60  57  89 S23G29    29.90R
GROVE OK       LGT RAIN  64  64 100 SW7       30.06R
ROGERS AR      LGT RAIN  60  58  92 SE3       30.10F
SILOAM SPRINGS CLOUDY    63  55  77 SE9       30.07F
HARRISON AR    CLOUDY    69  60  73 SW7       30.11R
NEAR YELLVILLE PTSUNNY   70  57  64 SE5       30.10R

......KANSAS AND MISSOURI......

CITY           SKY/WX    TMP DP  RH WIND       PRES   REMARKS
KANSAS CTY INT CLOUDY    67  59  75 S16G25    29.93R
DOWNTOWN KC    CLOUDY    68  59  73 S20       29.94R
COLUMBIA       SUNNY     70  56  61 S17       30.07S
SEDALIA        CLOUDY    69  57  65 S17       30.02F
ST JOSEPH      PTSUNNY   69  59  70 S20G29    29.91R
ST LOUIS       PTSUNNY   75  55  49 S8        30.14F
SPIRIT OF STL  SUNNY     73  55  53 S7        30.12F
KIRKSVILLE     SUNNY     73  58  59 S17G24    30.05F
WICHITA        LGT RAIN  61  58  90 SE24G32   29.86S
TOPEKA         PTSUNNY   66  60  81 S14       29.90R
OLATHE         CLOUDY    65  60  84 S15G24    29.94R

......TENNESSEE......

CITY           SKY/WX    TMP DP  RH WIND       PRES   REMARKS
MEMPHIS        MOSUNNY   74  58  57 S6        30.17R
NASHVILLE      PTSUNNY   72  58  61 CALM      30.22S

......ARKANSAS.......

CITY           SKY/WX    TMP DP  RH WIND       PRES   REMARKS
FAYETTEVILLE   LGT RAIN  64  62  93 S14G35    30.09S
FT SMITH       CLOUDY    67  60  78 E8        30.06S
LITTLE ROCK    MOSUNNY   72  57  59 S10       30.11F

......OKLAHOMA.......

CITY           SKY/WX    TMP DP  RH WIND       PRES   REMARKS
TULSA          HVY RAIN  61  60  97 E15       29.97F FOG
PONCA CITY     CLOUDY    62  59  90 SE17G26   29.91R
MCALESTER      CLOUDY    69  64  84 S9G18     29.99S
OKLAHOMA CITY  CLOUDY    69  64  84 S16       29.91S

......IOWA............

CITY           SKY/WX    TMP DP  RH WIND       PRES   REMARKS
DES MOINES     CLOUDY    71  57  61 SE17      29.98F
QUAD CITIES    MOSUNNY   62  58  86 E7        30.13S FOG

......ILLINOIS........

CITY           SKY/WX    TMP DP  RH WIND       PRES   REMARKS
QUINCY         SUNNY     72  54  53 S10       30.10F
CHICAGO        FOG       53  53 100 CALM      30.18F VSB 1/4




USA.gov is the U.S. government's official web portal to all federal, state and local government web resources and services.